2022-098H (53451 NORAD) Tracking and Keplerian Element Data

This shows tracking and keplerian element data for the satellite.

Feedback or suggestion? Click here.




ElementValue
Catalog53451
Name2022-098H
Epoch Orbit1550
Epoch Day325.06423788
Epoch Year2022
RAAN59.7145
Inclination97.5381
Eccentricity0.0005745
Argument of Perigee299.5818
Mean Anonmoly185.7796
Mean Motion15.0970722
Decay Rate4.359E-05
L11 53451U 22098H 22325.06423788 .00004359 00000+0 27427-3 0 9996
L22 53451 97.5381 59.7145 0005745 299.5818 185.7796 15.09707220 15504



Live tracking and technical data element details for 2022-098H (NORAD 53451). 2022-098H can be tracked NOW for your location showing map with azimuth and elevation plus other details from your city location.







IsCatalogInMostPopularTable: catalog: 53451, numindb: 4
Update: records affected: 1



GetName: 53451 2022-098H

Hit Count: updated at: Thu, 08 Dec 2022 19:49:24 GMT